Regional Weather Roundup
Issued by NWS

Home | Current Version | Previous Version | Graphics & Text | Print | Product List | Glossary On
Versions: 1 2 3 4 5 6 7 8 9 10 11 12 13 14 15 16 17 18 19 20 21 22 23 24 25 26 27
000
ASUS45 KBOU 170710
RWRCO

WEATHER ROUNDUP FOR COLORADO
NATIONAL WEATHER SERVICE DENVER/BOULDER CO
1200 AM MST WED JAN 17 2018

NOTE: "FAIR" INDICATES FEW OR NO CLOUDS BELOW 12000 FEET WITH NO
SIGNIFICANT WEATHER AND/OR OBSTRUCTIONS TO VISIBILITY.

COZ001>005-013-030-031-170800-
...NORTHWEST COLORADO...

CITY           SKY/WX    TMP DP  RH WIND       PRES   REMARKS
CRAIG          FAIR       4  -3  73 CALM      30.37S
HAYDEN         FAIR      12   2  64 E14       30.37R WCI  -3
MEEKER         FAIR      17  10  74 E7        30.37R WCI   8
RABBIT EARS PA FAIR      14   7  73 W12G17    30.30S WCI   0
STEAMBOAT SPGS FAIR       7   2  79 CALM      30.37R
WALDEN         FAIR       3  -8  60 SE7       30.32S WCI  -9
$$

COZ006>008-011-170800-
...WEST CENTRAL VALLEYS...

CITY           SKY/WX    TMP DP  RH WIND       PRES   REMARKS
GRAND JUNCTION FAIR      22  13  68 E5        30.38S WCI  16
MONTROSE       FAIR      20  13  74 SE9       30.41S WCI   9
EAGLE          FAIR       9   1  70 CALM      30.43S
RIFLE          FAIR      19  12  74 CALM      30.41R
DELTA          FAIR      22  12  65 CALM      30.41S
NUCLA          FAIR      23  10  58 E8        30.41S WCI  14
$$

COZ017>023-064>068-170800-
...SOUTHWEST COLORADO...

CITY           SKY/WX    TMP DP  RH WIND       PRES   REMARKS
DURANGO        FAIR      18  15  88 CALM      30.35S
CORTEZ         FAIR      16  14  92 E6        30.37S WCI   7
PAGOSA SPRINGS FAIR      19  17  91 CALM      30.36S
TELLURIDE      FAIR      21   4  48 SE5       30.37S WCI  15
WOLF CREEK PAS FAIR      21 -18  16 N5        30.38F WCI  15
$$

COZ009-010-012-014-032>034-037-058>063-170800-
...CENTRAL COLORADO...

CITY           SKY/WX    TMP DP  RH WIND       PRES   REMARKS
ASPEN          FAIR      13  -1  54 S8        30.35R WCI   2
BUENA VISTA    FAIR       8  -2  64 NW3       30.31S
COPPER MTN     NOT AVBL
BERTHOUD PASS  FAIR      12   1  62 NW24G30   30.28F WCI  -8
COTTONWOOD PAS   N/A     32 -15  12 NW5       30.28F WCI  27
GUNNISON       FAIR       5   2  87 CALM      30.40R
KREMMLING      FAIR       3  -4  72 CALM      30.43R
LEADVILLE      FAIR      11 -11  36 NE10      30.29S WCI  -3
MONARCH PASS   FAIR      18  -6  35 W17       30.41F WCI   2
SALIDA         FAIR      17   9  71 NW5       30.38F WCI  10
SUNLIGHT       FAIR      19 -15  21 W7        30.38S WCI  10
WILKERSON PASS FAIR      23 -22  13 NW8       30.30F WCI  14
$$

COZ069>075-170800-
...SAN LUIS VALLEY/SANGRE DE CRISTO MOUNTAINS...

CITY           SKY/WX    TMP DP  RH WIND       PRES   REMARKS
ALAMOSA        FAIR       2  -3  80 W5        30.36S WCI  -8
DEL NORTE      FAIR       7   2  81 W10       30.36S WCI  -8
LA VETA PASS   FAIR      16  12  86 SW26        N/A  WCI  -3
SAGUACHE       FAIR       9   5  85 NW9       30.36F WCI  -5
$$

COZ035-036-038>040-170800-
...NORTHERN COLORADO FRONT RANGE...

CITY           SKY/WX    TMP DP  RH WIND       PRES   REMARKS
DENVER INTL AP FAIR      18   7  62 SW6       30.21F WCI  10
DMNS CITY PARK NOT AVBL
AURORA         CLEAR     23   4  44 S8        30.21F WCI  14
FRONT RANGE AP FAIR      19  10  67 SW5       30.21F WCI  12
ERIE MUNI ARPT FAIR      10   7  91 CALM      30.29F
BOULDER MUN AP FAIR      19  18  93 CALM      30.22F
CENTENNIAL     FAIR      18   5  57 SE7       30.20F WCI   9
BROOMFIELD     FAIR      23  14  68 CALM      30.21F
FORT COLLINS   FAIR       9   7  92 NW3       30.24F
LONGMONT       FAIR      14   9  80 SW3       30.25F
$$

COZ041-046-047-076>085-087-088-170800-
...PIKES PEAK/PALMER DIVIDE AND SOUTHERN FOOTHILLS...

CITY           SKY/WX    TMP DP  RH WIND       PRES   REMARKS
COLO. SPRINGS  FAIR      13   5  70 N9        30.25F WCI   1
A. F. ACADEMY  FAIR       8   1  72 N9        30.23F WCI  -5
SCHRIEVER AFB  FAIR      15   8  73 CALM      30.26F
CHEYENNE MTN   FAIR      25   2  37 CALM      30.17F
ELLICOTT         N/A    N/A N/A N/A CALM        N/A
FALCON         FAIR      19   8  63 W7        30.24F WCI   9
FORT CARSON    FAIR      14   6  70 N9        30.24F WCI   2
LIMON          FAIR       4   1  88 SE5       30.25F WCI  -5
MONUMENT HILL  FAIR      21   3  45 S10       30.22F WCI  10
CANON CITY     FAIR      16  10  79 W7        30.27F WCI   6
WALSENBURG     FAIR      18  14  86 CALM      30.25F
TRINIDAD       FAIR      24  17  74 W15       30.28F WCI  11
$$

COZ042>045-048>051-090-091-170800-
...NORTHEAST COLORADO...

CITY           SKY/WX    TMP DP  RH WIND       PRES   REMARKS
GREELEY ARPT   FAIR       6   1  80 NW6       30.26F WCI  -4
AKRON          FAIR      14   4  64 W9        30.23F WCI   2
BURLINGTON     FAIR      12   1  61 SW13      30.31F WCI  -3
WRAY           FAIR      18   1  49 SW10      30.31F WCI   6
YUMA           FAIR      10   3  72 SW5       30.27F WCI   2
STERLING       FAIR       5   0  78 W3        30.26F
HOLYOKE        FAIR       5   0  78 S5        30.30F WCI  -4
FORT MORGAN    FAIR       9   0  66 W6        30.25F WCI  -1
$$

COZ086-089-092>099-170800-
...SOUTHEAST COLORADO...

CITY           SKY/WX    TMP DP  RH WIND       PRES   REMARKS
PUEBLO         FAIR       9   4  80 CALM      30.31F
LA JUNTA       FAIR       9  -2  61 NW7       30.33F WCI  -2
LAMAR          FAIR       3  -6  66 NE3       30.34F
SPRINGFIELD      N/A     11   3  70 S10       30.32F WCI  -3
$$




USA.gov is the U.S. government's official web portal to all federal, state and local government web resources and services.